This demonstration page uses our WeatherBlox Daily Observations layout. Learn more.

Left ArrowRight Arrow

36.19886, -115.1175

Hourly Observations for May 23, 2021

Temp ( °F °C ) Dew Point ( °F °C ) Humidity (%) Winds ( mph kmh ) Pressure ( in mb ) Visibility ( mi km ) Precip ( " mm )
12:53 am 00:53 Clear 60 15.6 33 0.6 36 36 W 10 17 29.99 1016 10 16 N/A
1:53 am 01:53 Clear 58 14.4 33 0.6 39 39 NW 5 7 29.99 1016 10 16 N/A
2:53 am 02:53 Clear 56 13.3 33 0.6 42 42 NW 5 7 30.00 1016 10 16 N/A
3:53 am 03:53 Clear 55 12.8 32 undefined 42 42 NW 3 6 30.00 1016 10 16 N/A
4:53 am 04:53 Clear 54 12.2 32 undefined 43 43 NNW 7 11 30.01 1016 10 16 N/A
5:53 am 05:53 Sunny 53 11.7 31 -0.6 43 43 NW 6 9 30.03 1017 10 16 N/A
6:53 am 06:53 Sunny 57 13.9 34 1.1 42 42 NW 5 7 30.04 1017 10 16 N/A
7:53 am 07:53 Sunny 62 16.7 34 1.1 35 35 N N/A 30.06 1018 10 16 N/A
8:53 am 08:53 Sunny 64 17.8 32 undefined 30 30 E 5 7 30.06 1018 10 16 N/A
9:53 am 09:53 Sunny 66 18.9 31 -0.6 27 27 VRB 5 7 30.06 1018 10 16 N/A
10:53 am 10:53 Sunny 71 21.7 28 -2.2 20 20 SE 8 13 30.05 1018 10 16 N/A
11:53 am 11:53 Sunny 74 23.3 24 -4.4 15 15 N N/A 30.03 1017 10 16 N/A
12:53 pm 12:53 Sunny 76 24.4 22 -5.6 13 13 VRB 5 7 30.00 1016 10 16 N/A
1:53 pm 13:53 Sunny 78 25.6 16 -8.9 9 9 SE 15 24 29.98 1015 10 16 N/A
2:53 pm 14:53 Sunny 80 26.7 16 -8.9 9 9 ENE 8 13 29.96 1015 10 16 N/A
3:53 pm 15:53 Sunny 81 27.2 16 -8.9 9 9 S 14 22 29.94 1014 10 16 N/A
4:53 pm 16:53 Sunny 82 27.8 16 -8.9 8 8 NW 9 15 29.93 1014 10 16 N/A
5:53 pm 17:53 Sunny 80 26.7 17 -8.3 9 9 VRB 3 6 29.93 1014 10 16 N/A
6:53 pm 18:53 Sunny 80 26.7 17 -8.3 9 9 NNE 6 9 29.93 1014 10 16 N/A
7:53 pm 19:53 Clear 78 25.6 24 -4.4 13 13 NNW 9 15 29.94 1014 10 16 N/A
8:53 pm 20:53 Clear 76 24.4 23 -5 14 14 NW 3 6 29.96 1014 10 16 N/A
9:53 pm 21:53 Clear 74 23.3 23 -5 15 15 NW 5 7 29.97 1015 10 16 N/A
10:53 pm 22:53 Clear 72 22.2 21 -6.1 15 15 NW 12 19 29.98 1015 10 16 N/A
11:53 pm 23:53 Clear 71 21.7 21 -6.1 15 15 NNW 8 13 29.98 1015 10 16 N/A

Powered by AerisWeather